Flag for Switzerland Weather past 2 weeks in Köniz, Bern, Switzerland

Now
61 °F

Passing clouds.


Feels Like: 61 °F
Forecast: 33 / 59 °F
Wind: 2 mph from North

Location: Bern / Belp

Current Time: Apr 19, 2015 at 6:17:03 PM

Latest Report: Apr 19, 2015 at 5:50 PM


Visibility: N/A

Pressure: 29.98 "Hg

Humidity: 45%

Dew point: 39 °F

Location of KönizLocation

Historic Weather in Köniz — Graph

°F

Köniz temperature yesterday

Maximum temperature yesterday: 52 °F (at 3:20 PM)
Minimum temperature yesterday: 41 °F (at 11:50 PM)
Average temperature yesterday: 47 °F

Past Weeks' High & Low Weather Summary

 TemperatureHumidityPressure
High75 °F (Apr 15, 6:50 PM)100% (Apr 6, 3:50 AM)30.48 "Hg (Apr 6, 3:50 AM)
Low25 °F (Apr 6, 3:50 AM)17% (Apr 14, 6:20 PM)29.80 "Hg (Apr 4, 5:20 PM)
Average48 °F67%30.23 "Hg
* Reported Apr 4 5:20 PM — Apr 19 5:20 PM, Köniz, Weather by CustomWeather, © 2015

Note: Actual official high and low records may vary slightly from our data, if they occured in-between our weather recording intervals... More about our weather records

Advertising

Köniz weather history for previous 24 hours

 ConditionsComfort  
Time TempWeatherWind HumidityBarometerVisibility
5:20 PM
Sun, Apr 19
63 °FPassing clouds.5 mph42%29.98 "HgN/A
4:50 PM61 °FScattered clouds.3 mph45%29.98 "HgN/A
4:20 PM63 °FBroken clouds.3 mph49%29.98 "HgN/A
3:50 PM63 °FScattered clouds.2 mph42%29.98 "HgN/A
3:20 PM57 °FScattered clouds.3 mph44%30.01 "HgN/A
2:50 PM57 °FScattered clouds.3 mph48%30.01 "HgN/A
2:20 PM55 °FPassing clouds.5 mph51%30.01 "HgN/A
1:50 PM54 °FScattered clouds.3 mph54%30.01 "HgN/A
1:20 PM52 °FPartly sunny.3 mph54%30.01 "HgN/A
12:50 PM52 °FPartly sunny.5 mph54%30.01 "HgN/A
12:20 PM48 °FPartly sunny.3 mph58%30.01 "HgN/A
11:50 AM48 °FPartly sunny.2 mph62%30.04 "HgN/A
11:20 AM46 °FPartly sunny.2 mph62%30.04 "HgN/A
10:50 AM45 °FPartly sunny.6 mph66%30.01 "HgN/A
10:20 AM45 °FPartly sunny.5 mph61%30.01 "HgN/A
9:50 AM43 °FPartly sunny.2 mph66%30.01 "HgN/A
9:20 AM41 °FPartly sunny.1 mph70%30.01 "HgN/A
8:50 AM39 °FScattered clouds.2 mph81%30.01 "HgN/A
8:20 AM36 °FPassing clouds.3 mph87%30.01 "HgN/A
7:50 AM32 °FPassing clouds.1 mph100%30.01 "HgN/A
7:20 AM30 °FPassing clouds.2 mph93%30.01 "HgN/A
6:50 AM28 °FPassing clouds.2 mph100%30.01 "HgN/A
6:20 AM30 °FPassing clouds.2 mph93%30.01 "HgN/A
5:20 AM30 °FClear.1 mph93%30.01 "Hg10 mi
4:50 AM30 °FClear.1 mph100%30.01 "Hg10 mi
4:20 AM30 °FClear.1 mph93%30.04 "Hg10 mi
3:50 AM32 °FClear.1 mph93%30.04 "Hg10 mi
3:20 AM32 °FChilly.1 mph93%30.04 "HgN/A
2:50 AM34 °FChilly.1 mph93%30.04 "HgN/A
2:20 AM34 °FClear.1 mph87%30.04 "Hg10 mi
1:50 AM37 °FClear.1 mph81%30.04 "Hg10 mi
1:20 AM37 °FClear.1 mph75%30.04 "Hg10 mi
12:50 AM36 °FClear.1 mph87%30.04 "Hg10 mi
12:20 AM41 °FClear.3 mph66%30.04 "Hg10 mi
11:50 PM
Sat, Apr 18
41 °FClear.1 mph70%30.07 "Hg10 mi
11:20 PM43 °FClear.2 mph61%30.07 "Hg10 mi
10:50 PM43 °FPassing clouds.5 mph61%30.07 "HgN/A
10:20 PM43 °FClear.3 mph66%30.07 "Hg10 mi
9:50 PM43 °FClear.3 mph66%30.07 "Hg10 mi
9:20 PM45 °FSunny.3 mph61%30.07 "Hg10 mi
8:50 PM46 °FPassing clouds.6 mph57%30.07 "HgN/A
8:20 PM48 °FPassing clouds.7 mph54%30.09 "HgN/A
7:50 PM50 °FPassing clouds.7 mph54%30.09 "HgN/A
7:20 PM50 °FScattered clouds.7 mph58%30.09 "HgN/A
6:50 PM50 °FScattered clouds.7 mph58%30.09 "HgN/A
6:20 PM50 °FPartly sunny.8 mph58%30.09 "HgN/A
Weather by CustomWeather, © 2015

See weather overviewHow to use our weather pages